Weather History for Agadir Al Massira, Morocco

Change the Weather History Date:

Sunday, April 29, 2012

  Actual Average Record
Temperature  
Mean Temperature 58 °F -  
Max Temperature 70 °F - - ()
Min Temperature 46 °F - - ()
Degree Days  
Heating Degree Days 7    
Growing Degree Days 8 (Base 50)    
Moisture  
Dew Point 48 °F    
Average Humidity 64    
Maximum Humidity 88    
Minimum Humidity 31    
Precipitation  
Precipitation 0.00 in - - ()
Sea Level Pressure  
Sea Level Pressure 30.06 in    
Wind  
Wind Speed 8 mph ()    
Max Wind Speed 24 mph    
Max Gust Speed -    
Visibility 6.2 miles    
Events      
T = Trace of Precipitation, MM = Missing Value Source: Averaged Metar Reports

Daily Weather History Graph

Daily Weather History Graph

Search for Another Location

Airport:

Trip Planner

Search our weather history database for the weather conditions in past years. The results will help you decide how hot, cold, wet, or windy it might be!

Date:

Astronomy

Apr. 29, 2012 Rise Set
Actual Time 6:55 AM WEST 8:14 PM WEST
Civil Twilight 6:30 AM WEST 8:39 PM WEST
Nautical Twilight 6:00 AM WEST 9:10 PM WEST
Astronomical Twilight 5:29 AM WEST 9:41 PM WEST
Moon 1:23 PM WEST 3:06 AM WEST
Length of Visible Light 14h 09m
Length of Day
13h 18m
Waxing Crescent, 51% of the Moon is Illuminated
Apr 29
Waxing Crescent
May 6
Full
May 12
Last Quarter
May 21
New
May 28
First Quarter

Hourly Weather History & Observations

Time (WEST) Temp. Windchill Dew Point Humidity Pressure Visibility Wind Dir Wind Speed Gust Speed Precip Events Conditions
12:00 AM 55 °F - 49 °F 74% 30.10 in 6 mi South 4.6 mph - -   Scattered Clouds
12:00 AM 55.4 °F - 50.0 °F 82% 30.09 in 6.2 mi South 4.6 mph - N/A   Partly Cloudy
1:00 AM 53.6 °F - 48.2 °F 82% 30.09 in 6.2 mi South 4.6 mph - N/A   Partly Cloudy
3:00 AM 51.8 °F - 46.4 °F 82% 30.06 in 6.2 mi ESE 2.3 mph - N/A   Partly Cloudy
4:00 AM 51 °F - 46 °F 78% 30.07 in 6 mi North 3.5 mph - -   Scattered Clouds
4:00 AM 50.0 °F - 46.4 °F 87% 30.06 in 6.2 mi North 3.5 mph - N/A   Partly Cloudy
5:00 AM 50.0 °F - 46.4 °F 87% 30.06 in 6.2 mi SE 3.5 mph - N/A   Partly Cloudy
6:00 AM 48.2 °F - 44.6 °F 87% 30.06 in 6.2 mi ESE 3.5 mph - N/A   Partly Cloudy
7:00 AM 46.4 °F 45.2 °F 42.8 °F 87% 30.06 in 6.2 mi SE 3.5 mph - N/A   Partly Cloudy
8:00 AM 51.8 °F - 48.2 °F 88% 30.09 in 6.2 mi Variable 2.3 mph - N/A   Partly Cloudy
9:00 AM - - - N/A% 0.00 in - North - - N/A   Partly Cloudy
10:00 AM 62 °F - 51 °F 57% 30.12 in 6 mi NNE 1.2 mph - -   Scattered Clouds
10:00 AM 62.6 °F - 50.0 °F 63% 30.09 in 6.2 mi Variable 1.2 mph - N/A   Partly Cloudy
11:00 AM 64.4 °F - 48.2 °F 56% 30.09 in 6.2 mi WSW 6.9 mph - N/A   Scattered Clouds
12:00 PM 66.2 °F - 44.6 °F 46% 30.09 in 6.2 mi Variable 5.8 mph - N/A   Scattered Clouds
1:00 PM 69 °F - 45 °F 31% 30.08 in 6 mi West 9.2 mph - -  
1:00 PM 69.8 °F - 44.6 °F 40% 30.06 in 6.2 mi West 9.2 mph - N/A   Scattered Clouds
2:00 PM 68.0 °F - 46.4 °F 46% 30.06 in 6.2 mi West 16.1 mph - N/A   Scattered Clouds
3:00 PM 69.8 °F - 48.2 °F 46% 30.06 in 6.2 mi West 21.9 mph - N/A   Scattered Clouds
4:00 PM 68 °F - 49 °F 40% 30.05 in 6 mi West 24.2 mph - -   Partly Cloudy
4:00 PM 68.0 °F - 50.0 °F 52% 30.04 in 6.2 mi West 24.2 mph - N/A   Scattered Clouds
5:00 PM 68.0 °F - 50.0 °F 52% 30.04 in 6.2 mi West 23.0 mph - N/A   Scattered Clouds
6:00 PM 68.0 °F - 50.0 °F 52% 30.04 in 6.2 mi West 21.9 mph - N/A   Scattered Clouds
7:00 PM 65 °F - 51 °F 50% 30.02 in 6 mi West 21.9 mph - -   Scattered Clouds
7:00 PM 66.2 °F - 50.0 °F 56% 30.01 in 6.2 mi West 21.9 mph - N/A   Partly Cloudy
8:00 PM 62.6 °F - 51.8 °F 68% 30.04 in 6.2 mi West 19.6 mph - N/A   Partly Cloudy
9:00 PM - - - N/A% 0.00 in - North - - N/A   Partly Cloudy
10:00 PM 60 °F - 50 °F 60% 30.05 in 6 mi West 17.3 mph - -   Scattered Clouds
10:00 PM 60.8 °F - 50.0 °F 68% 30.04 in 6.2 mi West 17.3 mph - N/A   Partly Cloudy
11:00 PM 59.0 °F - 50.0 °F 72% 30.06 in 6.2 mi West 13.8 mph - N/A   Partly Cloudy
12:00 AM 59.0 °F - 48.2 °F 67% 30.06 in 6.2 mi West 12.7 mph - N/A   Partly Cloudy